Regional Weather Roundup
Issued by NWS Green Bay, WI

Home | Current Version | Previous Version | Text Only | Print | Product List | Glossary On
Versions: 1 2 3 4 5 6 7 8 9 10 11 12 13 14 15 16 17 18 19 20 21 22 23 24 25 26 27 28 29 30 31 32 33 34 35 36 37 38 39 40 41 42 43 44 45 46 47 48 49 50
000
ASUS43 KGRB 220010
RWRGRB

NORTH-CENTRAL AND NORTHEAST WISCONSIN REGIONAL WEATHER ROUNDUP
NATIONAL WEATHER SERVICE GREEN BAY WI
600 PM CST SUN DEC 21 2014

WIZ005-009-010>012-018-019-220100-
NORTH CENTRAL WISCONSIN

CITY           SKY/WX    TMP DP  RH WIND       PRES   REMARKS
IRONWOOD       CLOUDY    34  32  93 S6        29.78F
MANITOWISH WTR LGT SNOW  32  32 100 S9        29.82S
ARBOR VITAE    LGT SNOW  34  32  93 S12G17    29.83S
EAGLE RIVER    LGT SNOW  32  32 100 S6        29.85F
LAND O LAKES   LGT SNOW  32  32  98 S8        29.85F
RHINELANDER    LGT SNOW  32  30  92 S14       29.86F FOG
PHILLIPS       LGT SNOW  32  32  99 S10       29.81S
ANTIGO         CLOUDY    31  31 100 S10       29.91S FOG
TOMAHAWK       LGT RAIN  32  31  98 S6        29.85F
MERRILL        CLOUDY    33  33 100 S10       29.87F FOG
$$

WIZ013-073-220100-
NORTHEAST WISCONSIN

CITY           SKY/WX    TMP DP  RH WIND       PRES   REMARKS
IRON MOUNTAIN  LGT SNOW  33  31  92 SE13      29.93F FOG
MARINETTE      CLOUDY    36  32  87 S9        29.99F
OCONTO         CLOUDY    34  33  97 S8        30.00F
$$

WIZ017-030-035>037-045-220100-
CENTRAL WISCONSIN

CITY           SKY/WX    TMP DP  RH WIND       PRES   REMARKS
MEDFORD        LGT RAIN  32  32  99 SE16G22   29.83F
WAUSAU         CLOUDY    33  32  96 S15       29.88F FOG
MOSINEE        CLOUDY    32  32 100 SE12G17   29.90F FOG
MARSHFIELD     CLOUDY    34  32  92 S13       29.87S FOG
WISC RAPIDS    CLOUDY    34  32  92 S8        29.92S FOG
STEVENS POINT  DRIZZLE   32  32  99 S10       29.92F
WAUPACA        CLOUDY    36  33  90 SE8       29.97R FOG
SHAWANO        CLOUDY    36  33  88 S7        29.97S FOG
CLINTONVILLE   CLOUDY    34  32  93 S10       29.97S FOG
$$

WIZ038-039-048-051-220100-
FOX VALLEY

CITY           SKY/WX    TMP DP  RH WIND       PRES   REMARKS
NWS GREEN BAY  CLOUDY    35  31  85 S14       30.00S
APPLETON       CLOUDY    34  32  93 S14       29.99S FOG
OSHKOSH        CLOUDY    35  30  82 S12       29.99S
FOND DU LAC    CLOUDY    36  30  79 S16       29.99S
$$

WIZ022-050-052-220100-
EAST CENTRAL WISCONSIN

CITY           SKY/WX    TMP DP  RH WIND       PRES   REMARKS
STURGEON BAY   CLOUDY    36  32  87 S13G21    30.03S
MANITOWOC      CLOUDY    37  34  89 S16       30.04S
SHEBOYGAN      CLOUDY    35  30  82 S14       30.03S
$$

LMZ563-521-522-541>543-220100-
LAKESHORE

STATION/POSITION TIME  TEMP    WIND        PRES    VSBY  WAVE
                       AIR SEA DIR/SP/G                  HT/PER
                 (UTC) (F)     (DEG/KT/KT) (MB)    (MI)  (FT/S)
SHEBOYGAN LKSHOR 0000   37 38  180/ 23/ 26 1017.7S
KEWAUNEE LKSHORE 0000   36     190/ 14/ 16 1016.2S
ALGOMA MARINA    0000          230/ 21/ 24   N/A
NORTHPORT PIER   0000   37     160/ 10/ 15 1016.9S
SISTER BAY LKSHO 0000          160/ 18/ 24   N/A
CHAMBERS ISLAND  0000   37     150/  8/ 15 1016.3F
MENOMINEE LKSHOR 0000   35     170/ 10/ 12 1016.6F
$$


USA.gov is the U.S. government's official web portal to all federal, state and local government web resources and services.